Theta_e
309 308 308 308 308 308 308 308 309 309 309 309 310 311 312 313 313 309 304 309 313 320 321 319 318 319 318 312 310 307 299 296 301 301 304 307 307 310 314 315 320 323 323 329 334
308 308 308 308 308 308 308 309 309 309 309 309 309 309 312 312 306 303 310 316 318 319 314 313 311 314 310 309 308 302 300 299 307 307 305 304 303 309 311 315 317 322 327 332 333
308 308 308 308 309 309 309 309 309 309 309 308 308 309 311 310 298 299 311 316 317 319 314 312 312 312 305 309 306 304 298 303 303 306 304 302 302 305 309 310 316 317 324 328 330
308 308 308 308 308 309 309 309 309 309 309 309 308 308 309 305 285 303 313 315 316 317 312 310 307 304 303 302 306 299 304 304 304 306 305 303 304 302 308 313 310 323 328 329 327
309 308 308 308 308 309 309 309 309 309 309 309 308 307 304 296 295 305 309 310 310 312 308 306 303 302 299 302 304 301 302 305 306 305 305 306 303 302 304 308 311 325 327 327 327
310 310 309 309 309 308 309 309 309 308 309 309 308 307 299 288 303 305 306 306 305 308 307 307 304 305 302 302 300 303 305 305 305 305 306 302 302 300 305 309 317 321 324 326 327
309 309 309 309 309 309 309 309 309 308 309 309 309 304 296 293 305 307 306 306 307 307 306 308 309 304 304 301 305 303 299 302 302 303 302 304 301 299 303 313 319 320 323 325 327
310 309 309 309 309 309 309 309 308 308 308 308 308 303 291 304 307 305 306 303 307 310 310 311 311 306 303 306 300 297 298 292 299 303 301 302 296 303 304 312 317 320 323 321 324
309 309 309 309 309 308 308 308 308 307 307 307 302 298 289 304 299 304 305 300 305 309 310 310 308 302 300 295 289 289 286 290 294 302 299 299 296 300 303 301 311 318 320 321 322
310 309 308 308 308 307 307 307 305 303 302 302 301 292 295 293 298 302 305 303 303 304 302 301 300 293 294 292 284 286 287 290 290 293 299 296 296 301 303 301 301 308 319 320 321
310 308 308 307 306 307 304 300 293 291 294 288 289 288 292 297 300 300 304 303 302 300 291 296 291 288 292 293 294 291 290 289 291 294 292 291 295 299 301 302 300 303 304 309 311
309 308 307 306 305 304 300 293 293 295 286 293 292 291 294 295 291 298 305 296 293 287 293 291 287 294 296 293 292 291 288 287 290 293 292 288 290 297 299 300 298 297 302 304 303
309 308 306 304 304 299 296 295 300 299 286 287 291 292 290 291 293 295 300 296 287 286 288 288 290 295 294 291 290 289 288 287 287 289 291 290 289 293 297 298 295 295 296 298 302
309 308 306 304 297 297 294 299 298 300 280 281 286 291 291 293 291 300 301 296 291 285 288 289 294 292 292 290 291 285 292 290 288 288 284 288 285 289 295 290 293 295 296 295 296
309 307 305 302 297 294 296 298 295 292 270 282 285 296 293 288 293 294 301 296 289 285 287 285 288 291 288 289 292 287 292 291 289 286 285 285 285 285 294 288 291 294 294 294 293
308 307 305 301 299 296 298 293 292 278 270 276 283 285 286 289 292 294 294 298 295 288 288 287 294 293 291 292 292 292 289 288 288 285 279 285 284 281 286 291 291 294 292 292 291
308 305 300 298 293 296 294 290 278 272 277 277 279 283 284 284 287 289 288 288 286 282 282 286 287 291 294 288 291 290 286 279 278 278 278 282 281 283 288 289 291 293 290 289 290
304 301 298 296 296 294 291 285 272 270 272 281 281 282 281 285 285 287 285 284 287 286 283 280 280 288 292 290 287 288 286 280 273 275 277 281 279 283 289 289 289 289 289 288 288
302 298 296 296 294 293 288 276 274 273 279 278 280 278 279 283 284 285 285 284 286 286 282 280 281 289 292 292 291 285 283 286 279 276 279 280 282 287 289 288 288 287 288 287 286
297 295 293 296 292 290 284 275 274 277 280 280 275 278 276 279 281 284 284 285 285 288 289 285 280 287 289 292 291 288 289 281 282 275 274 277 279 282 286 287 287 287 286 286 286
295 289 295 293 292 286 277 272 274 281 282 279 277 276 279 279 281 281 281 284 286 287 289 286 285 283 288 285 285 285 284 284 283 281 276 275 279 288 287 288 288 288 287 287 286
291 284 295 293 284 274 274 276 281 280 283 281 281 280 280 280 280 280 280 282 286 287 284 286 284 281 282 287 288 287 286 285 281 277 279 279 280 290 289 290 290 289 288 287 286
285 286 293 290 279 274 276 277 280 280 280 280 280 283 284 280 278 281 282 286 286 288 286 286 280 278 279 282 286 285 287 286 285 284 279 278 280 290 290 290 290 290 289 287 286
286 282 285 285 281 277 274 275 276 282 281 282 281 284 283 279 281 280 282 285 287 288 289 288 280 277 277 279 284 283 285 285 286 283 280 280 282 286 288 288 289 290 291 288 287
286 279 282 279 280 278 278 278 275 275 282 283 280 281 280 277 278 279 283 285 287 287 286 286 278 279 278 280 282 284 284 284 283 282 284 282 284 287 289 287 288 290 290 288 287
284 282 284 282 282 280 280 278 277 277 279 279 279 280 281 277 278 278 282 283 283 286 283 283 278 278 275 278 282 280 283 283 282 282 281 283 283 288 288 290 290 290 289 288 288
287 287 287 283 281 279 279 279 279 280 282 282 281 280 278 278 281 283 283 283 283 283 281 279 277 278 275 273 276 276 280 282 282 284 283 281 284 286 286 286 288 287 290 289 289
Wind_Speed
9 8 9 9 9 10 11 12 13 14 15 16 17 16 16 17 16 15 19 17 16 23 4 9 14 12 7 5 5 1 5 10 22 20 14 4 9 4 1 6 5 4 2 5 23
8 8 9 9 9 10 11 13 14 13 14 16 17 16 19 17 13 20 22 20 20 18 18 13 14 17 5 9 7 5 10 12 18 12 11 3 5 6 6 10 7 5 7 15 21
8 8 10 11 11 12 12 13 14 15 14 15 16 17 17 11 9 16 11 23 23 23 17 20 13 15 15 7 5 7 2 8 7 4 2 7 7 3 8 11 12 14 15 17 19
9 9 10 11 12 13 14 14 14 15 16 15 16 18 12 5 10 5 6 12 28 23 20 18 17 10 8 12 14 8 5 2 3 4 4 5 4 6 10 4 1 7 18 19 19
10 10 10 11 14 14 15 15 15 16 17 17 16 16 6 9 18 20 12 12 14 25 24 21 22 17 14 6 14 15 10 8 4 3 4 3 4 9 9 4 2 11 16 17 16
11 11 12 12 14 15 16 17 17 17 19 18 16 16 7 16 9 8 7 8 17 19 25 23 16 21 14 7 13 14 11 13 6 5 5 4 0 3 8 2 6 9 11 12 16
11 12 12 14 15 16 17 18 19 19 19 19 18 12 11 21 4 5 1 6 17 17 24 25 15 19 13 10 5 11 14 8 8 5 5 5 8 8 2 4 6 8 7 14 16
12 12 13 12 14 16 18 19 21 21 20 21 18 10 11 8 6 11 13 6 15 17 25 21 19 15 7 12 5 8 14 10 9 14 1 4 15 7 7 5 10 13 15 11 12
12 10 13 12 13 15 16 19 22 21 15 12 6 6 10 5 7 8 13 8 12 16 21 15 13 9 5 13 5 3 3 8 7 11 6 7 3 5 7 3 6 11 11 11 11
11 10 11 10 11 12 16 20 17 5 6 1 3 3 6 6 7 9 11 12 11 19 14 17 10 6 3 11 8 9 5 4 5 3 10 11 10 6 6 7 2 3 8 9 10
13 9 7 8 8 11 8 5 5 1 8 2 12 8 12 9 7 7 5 4 8 20 11 17 9 17 20 8 4 14 13 6 6 4 4 2 12 14 9 7 5 3 5 7 8
9 8 5 5 5 6 2 3 3 5 9 9 13 10 12 6 5 6 3 5 5 6 9 11 17 17 17 9 16 17 18 5 6 5 3 2 5 10 9 7 8 9 0 6 7
9 7 5 3 1 1 1 2 4 2 5 7 4 4 4 5 2 5 3 8 3 3 11 14 13 17 18 12 15 15 13 11 6 6 2 2 3 11 7 2 10 11 9 10 7
10 9 7 3 2 0 1 4 3 3 3 11 8 3 5 11 1 2 4 2 2 3 5 7 14 17 19 16 16 10 10 14 12 7 3 4 3 9 8 5 4 5 9 9 7
11 11 8 2 3 1 4 6 2 2 3 17 7 2 9 5 3 4 4 1 6 2 4 4 14 19 15 12 6 9 11 12 9 5 4 4 2 5 10 6 4 1 7 8 7
15 13 11 4 2 2 5 3 1 2 4 7 6 9 8 5 2 4 3 5 7 4 6 4 4 9 8 8 14 19 19 14 6 3 3 6 3 4 6 1 5 4 6 6 5
17 14 5 2 2 8 3 2 2 4 3 9 6 10 13 8 5 2 2 5 2 2 3 5 4 3 15 18 14 13 10 5 4 3 2 1 3 6 4 2 2 3 9 5 2
19 13 9 6 4 4 2 1 6 2 4 6 6 8 7 9 4 2 5 4 4 2 4 4 8 5 8 10 10 13 7 3 6 7 6 3 5 5 4 1 3 5 7 5 3
14 3 3 8 5 1 3 5 0 1 5 10 9 4 6 6 4 2 3 4 4 6 3 3 6 3 2 5 14 5 5 3 6 3 4 5 2 2 2 4 5 5 6 5 4
3 3 3 9 3 3 3 4 1 2 6 4 6 5 6 7 4 5 3 3 2 5 4 1 6 3 5 6 4 5 6 2 1 6 4 4 3 3 1 2 5 4 4 5 5
3 3 3 7 1 5 3 2 3 2 3 4 4 5 5 5 4 5 5 4 6 5 2 2 1 3 2 3 5 5 5 4 3 3 3 5 3 3 3 1 5 6 4 3 4
2 2 5 5 4 2 3 3 2 2 1 1 3 4 3 5 4 3 3 4 5 4 3 3 5 7 4 3 3 3 4 2 2 2 3 3 3 3 4 5 5 6 6 5 4
3 1 2 2 2 3 2 2 1 3 2 2 2 3 3 3 1 3 2 3 5 5 2 1 3 6 4 2 2 2 1 3 5 1 3 1 5 3 2 5 4 6 6 6 6
2 1 3 5 2 5 4 3 2 4 3 1 3 3 5 3 3 0 3 4 4 6 8 4 5 4 3 4 3 4 3 2 3 2 4 3 10 5 3 3 2 3 5 7 6
3 2 1 3 4 4 1 2 3 1 3 1 2 5 4 1 2 2 4 2 3 7 5 4 5 6 7 4 3 3 6 3 3 2 1 7 8 9 5 3 3 3 3 5 6
4 4 1 3 1 2 5 4 3 0 2 4 4 6 1 2 3 1 2 3 3 4 3 4 4 2 4 8 5 6 6 6 4 4 6 5 3 3 4 3 4 5 1 3 4
1 1 1 2 3 2 3 3 3 2 3 3 1 2 8 5 7 7 7 7 4 1 3 3 5 2 2 5 2 4 2 3 3 2 6 5 4 5 4 1 2 4 3 3 4
Wind_Direction
351 348 341 339 337 332 336 334 330 329 323 318 313 316 311 300 297 295 256 249 237 245 237 167 203 196 165 205 140 112 221 220 214 215 211 161 216 165 327 166 196 157 37 115 138
336 329 325 323 328 328 324 319 319 317 322 319 317 316 313 309 299 274 258 252 237 239 233 213 197 190 200 185 152 150 222 199 228 218 224 340 272 204 202 181 186 146 101 136 143
320 313 314 317 319 317 314 310 313 312 316 320 317 310 323 325 283 257 265 230 234 229 233 231 248 196 212 190 168 159 273 177 272 165 137 161 249 236 223 213 200 190 152 157 153
305 307 313 317 316 311 310 307 305 312 313 309 317 312 328 276 257 201 10 276 219 227 215 218 221 214 220 202 171 174 222 192 226 36 290 170 319 245 222 214 354 156 159 160 159
288 292 300 299 302 303 302 307 304 303 307 306 311 309 313 245 249 270 301 287 299 226 211 209 207 207 209 218 180 210 188 197 210 20 306 257 220 275 240 241 137 144 157 155 166
298 287 287 290 294 298 301 303 303 301 301 300 301 302 268 255 270 275 266 310 272 236 211 207 208 206 223 188 174 190 174 175 185 212 307 249 347 3 230 189 160 168 145 153 182
296 293 290 287 289 295 297 300 301 299 298 295 295 287 259 249 230 247 198 236 267 260 204 205 210 196 207 195 140 188 188 156 169 198 232 312 228 216 310 159 160 153 179 188 182
287 287 292 289 292 297 295 298 298 300 301 297 287 279 256 260 257 275 240 270 265 242 211 198 208 200 216 120 96 174 202 174 162 172 169 66 207 164 323 170 184 175 186 182 175
287 278 290 290 297 302 301 298 298 302 303 307 283 234 268 320 266 243 233 240 259 205 197 184 183 186 190 141 120 6 176 151 148 192 129 180 191 39 9 350 185 177 180 178 178
272 277 285 291 295 305 308 304 306 335 317 221 249 254 271 303 317 326 259 228 237 168 173 188 196 176 182 161 174 145 118 138 131 46 191 169 239 272 350 16 270 176 201 177 156
273 272 271 283 299 315 331 327 345 317 349 291 284 262 295 315 270 242 208 229 234 160 168 194 180 193 188 188 155 129 123 124 94 62 78 48 215 244 298 313 14 226 177 158 129
271 247 253 276 304 341 6 36 38 308 302 276 291 231 271 354 264 222 198 194 340 128 169 153 198 189 173 169 162 133 126 113 79 108 90 83 256 239 272 289 16 359 112 131 125
247 210 205 237 54 49 45 51 314 268 289 295 263 319 293 285 312 151 192 106 324 98 175 163 156 153 146 151 139 122 156 155 136 135 69 159 226 213 250 218 43 44 60 58 105
219 178 183 165 214 284 137 349 345 198 298 354 345 32 325 306 71 9 37 154 76 24 92 86 147 149 162 163 147 108 137 133 135 167 173 270 165 203 191 75 55 38 46 63 45
186 163 171 177 118 220 339 328 84 209 356 328 319 282 322 319 319 70 350 311 87 51 265 77 155 150 146 146 129 128 143 116 108 114 161 180 233 116 178 137 177 232 60 64 49
150 147 132 110 86 9 318 331 196 235 10 332 319 343 335 351 44 41 32 44 138 96 24 87 113 159 140 143 113 118 100 80 107 128 176 166 243 125 132 220 185 153 83 70 59
133 115 75 34 38 326 330 328 313 45 318 333 342 340 321 5 32 51 61 79 34 87 17 63 79 129 136 109 123 134 132 138 149 174 114 133 208 64 86 23 201 172 130 109 80
112 95 82 58 348 312 39 15 49 71 288 323 326 330 12 7 26 65 139 87 31 52 94 17 118 99 178 137 161 162 168 195 151 166 125 131 210 110 59 108 81 87 115 119 60
101 65 64 358 2 6 56 54 350 189 335 335 321 358 14 3 349 282 102 91 1 0 63 106 63 21 120 110 149 164 203 27 108 49 148 155 112 178 186 85 87 103 134 134 97
89 85 48 344 326 68 69 100 273 350 330 342 356 354 5 346 327 8 60 33 67 27 318 102 111 24 99 120 70 175 145 175 62 144 122 154 153 91 111 53 134 141 133 125 116
55 75 13 347 36 50 70 72 287 246 297 344 337 327 336 343 4 30 23 43 8 350 27 126 12 114 158 14 142 140 183 42 79 16 111 144 98 15 10 325 124 127 136 138 109
69 56 352 335 57 46 77 141 290 332 26 314 293 271 301 334 9 56 76 11 342 316 49 28 66 130 65 32 21 336 172 207 243 153 48 42 93 41 40 68 109 139 149 136 110
69 6 20 321 78 83 111 121 288 294 10 350 279 292 315 351 26 50 69 348 355 13 42 72 48 115 103 351 53 67 84 149 104 77 123 142 139 79 75 101 120 152 156 148 138
109 76 14 53 92 104 140 91 117 299 288 250 290 291 286 9 348 96 94 29 352 5 10 91 61 31 139 67 79 151 156 79 89 123 141 49 142 172 150 109 135 171 159 147 144
32 78 277 54 56 84 88 142 93 37 291 310 3 4 307 338 326 36 55 101 63 338 359 65 86 88 69 46 97 128 163 140 96 118 81 151 147 157 150 99 72 41 128 153 166
122 146 122 97 90 25 11 27 49 197 349 12 0 17 360 108 343 53 31 24 34 38 46 22 128 163 63 25 118 123 120 111 89 116 89 125 116 103 81 88 74 50 67 206 198
132 102 233 66 73 71 25 22 354 261 118 69 11 88 66 37 23 31 73 72 47 59 75 65 134 82 71 349 332 100 177 141 126 163 143 169 118 150 152 89 332 342 343 289 229